DW0937 Weather Reports


Display with metric or nautical units.
time (UTC)temp
F
wind
direction
speed
MPH
gust
MPH
rain 1hr
in
rain 24hr
in
rain mn
in
humidity
%
barometer
mb
20260902011602 80 234 0.0 0.0 0.00 0.00 0.00 54 1011.9
20260902011101 80 234 0.0 0.0 0.00 0.00 0.00 54 1011.8
20260902010558 80 234 0.0 0.0 0.00 0.00 0.00 53 1011.7
20260902010110 81 234 0.0 0.0 0.00 0.00 0.00 53 1011.7
20260902005557 81 234 0.0 0.0 0.00 0.00 0.00 52 1011.7
20260902005057 81 234 0.0 0.0 0.00 0.00 0.00 52 1011.8
20260902004802 82 234 0.0 0.0 0.00 0.00 0.00 51 1011.8
20260902004647 81 234 0.0 0.0 0.00 0.00 0.00 51 1011.8
20260902003553 82 234 0.0 0.0 0.00 0.00 0.00 51 1011.8
20260902003107 82 234 0.0 0.0 0.00 0.00 0.00 51 1011.8
20260902002547 82 234 0.0 0.0 0.00 0.00 0.00 50 1011.8
20260902002038 83 234 0.0 0.0 0.00 0.00 0.00 50 1011.8
20260902001538 83 234 0.0 0.0 0.00 0.00 0.00 49 1011.9
20260902001315 83 234 0.0 0.0 0.00 0.00 0.00 49 1012.0
20260902000537 83 234 0.0 0.0 0.00 0.00 0.00 49 1012.1
20260902000036 83 234 0.0 0.0 0.00 0.00 0.00 49 1012.0
20260901235536 83 234 0.0 1.0 0.00 0.00 0.00 49 1012.0
20260901235034 84 234 0.0 1.0 0.00 0.00 0.00 49 1012.0
20260901234532 84 234 0.0 2.0 0.00 0.00 0.00 50 1012.1
20260901234033 84 234 0.0 3.0 0.00 0.00 0.00 49 1012.1
20260901234020 84 234 0.0 3.0 0.00 0.00 0.00 49 1012.0
20260901233033 84 257 0.0 2.0 0.00 0.00 0.00 49 1012.0
20260901232533 84 257 1.0 2.0 0.00 0.00 0.00 47 1012.0
20260901232030 85 257 1.0 2.0 0.00 0.00 0.00 48 1012.2
20260901232016 85 257 1.0 3.0 0.00 0.00 0.00 49 1012.2
20260901231028 85 257 1.0 5.0 0.00 0.00 0.00 50 1012.2
20260901230528 85 251 1.0 5.0 0.00 0.00 0.00 50 1012.1
20260901230258 85 227 1.0 5.0 0.00 0.00 0.00 50 1011.9
20260901225526 85 204 1.0 5.0 0.00 0.00 0.00 50 1011.8
20260901225024 85 235 2.0 5.0 0.00 0.00 0.00 49 1011.8
20260901224522 85 236 2.0 5.0 0.00 0.00 0.00 48 1011.9
20260901224020 85 236 1.0 4.0 0.00 0.00 0.00 49 1011.9
20260901223520 86 232 1.0 4.0 0.00 0.00 0.00 49 1012.0
20260901223021 86 228 2.0 5.0 0.00 0.00 0.00 48 1012.0
20260901222518 86 242 2.0 5.0 0.00 0.00 0.00 48 1012.0
20260901222019 86 245 1.0 5.0 0.00 0.00 0.00 47 1012.0
20260901221521 86 247 1.0 3.0 0.00 0.00 0.00 46 1012.0
20260901221017 86 240 2.0 5.0 0.00 0.00 0.00 45 1012.0
20260901220518 87 213 2.0 6.0 0.00 0.00 0.00 44 1012.0
20260901220018 87 205 2.0 8.0 0.00 0.00 0.00 44 1011.9
20260901215518 87 235 2.0 8.0 0.00 0.00 0.00 43 1011.8
20260901215019 87 252 2.0 6.0 0.00 0.00 0.00 43 1011.8
20260901214513 87 218 2.0 8.0 0.00 0.00 0.00 44 1011.8
20260901214013 87 182 2.0 8.0 0.00 0.00 0.00 44 1011.7
20260901213512 87 154 2.0 6.0 0.00 0.00 0.00 45 1011.8
20260901213012 87 217 2.0 7.0 0.00 0.00 0.00 43 1011.9
20260901212738 87 212 3.0 7.0 0.00 0.00 0.00 42 1011.9
20260901212013 87 204 3.0 6.0 0.00 0.00 0.00 42 1011.9
20260901211512 87 221 2.0 6.0 0.00 0.00 0.00 40 1011.7
20260901211011 88 228 0.0 3.0 0.00 0.00 0.00 38 1011.5
20260901210736 88 196 1.0 4.0 0.00 0.00 0.00 40 1011.5
20260901210013 88 191 2.0 5.0 0.00 0.00 0.00 41 1011.6
20260901205512 88 166 2.0 7.0 0.00 0.00 0.00 40 1011.7
20260901205012 88 255 1.0 7.0 0.00 0.00 0.00 40 1011.7
20260901204513 89 231 2.0 8.0 0.00 0.00 0.00 41 1011.9
20260901204009 89 242 3.0 8.0 0.00 0.00 0.00 40 1012.0
20260901203507 90 176 2.0 5.0 0.00 0.00 0.00 39 1012.1
20260901203008 90 247 3.0 8.0 0.00 0.00 0.00 38 1012.0
20260901202508 89 223 3.0 8.0 0.00 0.00 0.00 40 1012.1
20260901202233 89 211 2.0 6.0 0.00 0.00 0.00 37 1012.1
20260901201508 89 257 2.0 6.0 0.00 0.00 0.00 37 1012.1
20260901201010 90 234 2.0 7.0 0.00 0.00 0.00 36 1012.1
20260901200508 89 199 2.0 7.0 0.00 0.00 0.00 37 1012.1
20260901200452 89 229 2.0 5.0 0.00 0.00 0.00 37 1012.1
20260901195503 89 247 2.0 5.0 0.00 0.00 0.00 40 1012.2
20260901195018 88 248 2.0 5.0 0.00 0.00 0.00 39 1012.3
20260901194943 88 245 3.0 10.0 0.00 0.00 0.00 40 1012.2
20260901193956 89 277 4.0 10.0 0.00 0.00 0.00 38 1012.2
20260901193456 89 217 3.0 7.0 0.00 0.00 0.00 38 1012.2
20260901192956 89 255 2.0 7.0 0.00 0.00 0.00 38 1012.3
20260901192731 89 223 1.0 4.0 0.00 0.00 0.00 42 1012.4
20260901191957 89 250 1.0 4.0 0.00 0.00 0.00 40 1012.4
20260901191458 89 245 1.0 5.0 0.00 0.00 0.00 43 1012.4
20260901190956 89 234 1.0 5.0 0.00 0.00 0.00 42 1012.4
20260901190722 89 242 1.0 3.0 0.00 0.00 0.00 39 1012.3
20260901185955 89 355 2.0 5.0 0.00 0.00 0.00 39 1012.3
20260901185722 89 235 2.0 5.0 0.00 0.00 0.00 36 1012.4
20260901184956 89 279 2.0 5.0 0.00 0.00 0.00 40 1012.4
20260901184726 88 155 2.0 6.0 0.00 0.00 0.00 40 1012.3
20260901183956 89 277 2.0 6.0 0.00 0.00 0.00 42 1012.4
20260901183457 89 355 1.0 3.0 0.00 0.00 0.00 40 1012.4
20260901182953 88 319 1.0 4.0 0.00 0.00 0.00 42 1012.6
20260901182452 88 346 1.0 4.0 0.00 0.00 0.00 43 1012.7
20260901181951 87 10 1.0 3.0 0.00 0.00 0.00 44 1012.8
20260901181452 87 12 1.0 4.0 0.00 0.00 0.00 43 1012.9
20260901180953 87 336 1.0 4.0 0.00 0.00 0.00 44 1013.0
20260901180453 87 216 1.0 5.0 0.00 0.00 0.00 46 1013.0
20260901175952 87 252 1.0 5.0 0.00 0.00 0.00 45 1013.1
20260901175504 87 351 1.0 5.0 0.00 0.00 0.00 44 1013.1
20260901174951 86 253 2.0 5.0 0.00 0.00 0.00 46 1013.2
20260901174454 86 5 3.0 6.0 0.00 0.00 0.00 45 1013.2
20260901174220 86 245 2.0 6.0 0.00 0.00 0.00 44 1013.3
20260901173452 86 261 2.0 7.0 0.00 0.00 0.00 44 1013.3
20260901172953 86 219 2.0 7.0 0.00 0.00 0.00 44 1013.4
20260901172451 87 342 2.0 5.0 0.00 0.00 0.00 42 1013.4
20260901171951 86 315 2.0 5.0 0.00 0.00 0.00 46 1013.4
20260901171451 86 355 2.0 5.0 0.00 0.00 0.00 48 1013.4
20260901170950 85 213 1.0 5.0 0.00 0.00 0.00 50 1013.5
20260901170448 85 221 2.0 6.0 0.00 0.00 0.00 50 1013.5
20260901165948 85 240 2.0 6.0 0.00 0.00 0.00 49 1013.5
20260901165448 85 237 1.0 3.0 0.00 0.00 0.00 51 1013.5
20260901165204 85 350 1.0 3.0 0.00 0.00 0.00 48 1013.6
20260901164436 85 350 1.0 3.0 0.00 0.00 0.00 50 1013.6
20260901163933 84 242 1.0 3.0 0.00 0.00 0.00 52 1013.5
20260901163433 84 240 1.0 3.0 0.00 0.00 0.00 49 1013.5
20260901162931 84 242 1.0 5.0 0.00 0.00 0.00 50 1013.6
20260901162433 83 341 1.0 5.0 0.00 0.00 0.00 51 1013.6
20260901161932 83 355 1.0 4.0 0.00 0.00 0.00 54 1013.4
20260901161431 83 0 1.0 4.0 0.00 0.00 0.00 53 1013.3
20260901160932 82 342 1.0 4.0 0.00 0.00 0.00 57 1013.3
20260901160431 82 338 1.0 5.0 0.00 0.00 0.00 57 1013.4
20260901155929 82 338 1.0 5.0 0.00 0.00 0.00 58 1013.5
20260901155431 81 324 1.0 4.0 0.00 0.00 0.00 56 1013.4
20260901154930 81 351 1.0 3.0 0.00 0.00 0.00 57 1013.5
20260901154654 81 252 1.0 3.0 0.00 0.00 0.00 62 1013.5
20260901153929 81 242 1.0 4.0 0.00 0.00 0.00 63 1013.5
20260901153427 80 0 1.0 4.0 0.00 0.00 0.00 62 1013.5
20260901153406 80 0 1.0 3.0 0.00 0.00 0.00 64 1013.6
20260901152423 79 240 1.0 3.0 0.00 0.00 0.00 63 1013.5
20260901151920 79 248 0.0 2.0 0.00 0.00 0.00 64 1013.5
20260901151420 79 225 1.0 2.0 0.00 0.00 0.00 68 1013.6
20260901150917 78 226 1.0 3.0 0.00 0.00 0.00 70 1013.6
20260901150415 78 222 2.0 3.0 0.00 0.00 0.00 70 1013.7
20260901150144 77 213 1.0 3.0 0.00 0.00 0.00 70 1013.9
20260901145415 77 248 1.0 3.0 0.00 0.00 0.00 74 1013.7
20260901144916 76 257 1.0 3.0 0.00 0.00 0.00 73 1013.7
20260901144417 76 262 1.0 4.0 0.00 0.00 0.00 74 1013.7
20260901143915 76 258 2.0 4.0 0.00 0.00 0.00 74 1013.9
20260901143640 75 216 2.0 4.0 0.00 0.00 0.00 75 1013.9
20260901143140 75 234 2.0 4.0 0.00 0.00 0.00 76 1014.0
20260901142412 75 267 2.0 4.0 0.00 0.00 0.00 77 1014.0
20260901142134 74 236 1.0 4.0 0.00 0.00 0.00 78 1014.0
20260901141407 74 234 2.0 5.0 0.00 0.00 0.00 80 1014.0
20260901140909 73 223 3.0 5.0 0.00 0.00 0.00 80 1014.0
20260901140405 73 223 2.0 4.0 0.00 0.00 0.00 82 1014.0
20260901135906 72 248 1.0 4.0 0.00 0.00 0.00 84 1013.7
20260901135405 71 263 1.0 4.0 0.00 0.00 0.00 86 1013.9
20260901134903 70 240 1.0 4.0 0.00 0.00 0.00 89 1014.0
20260901134406 69 237 0.0 4.0 0.00 0.00 0.00 93 1014.0
20260901134132 68 234 0.0 3.0 0.00 0.00 0.00 94 1014.0
20260901133403 68 234 0.0 3.0 0.00 0.00 0.00 94 1014.0
20260901133123 68 238 0.0 0.0 0.00 0.00 0.00 94 1013.9
20260901132400 67 237 0.0 0.0 0.00 0.00 0.00 94 1014.0
20260901131859 67 238 0.0 0.0 0.00 0.00 0.00 94 1013.9
20260901131358 67 238 0.0 0.0 0.00 0.00 0.00 95 1013.9
20260901130859 67 238 0.0 0.0 0.00 0.00 0.00 95 1013.7
20260901130849 67 238 0.0 2.0 0.00 0.00 0.00 95 1013.7
20260901125855 66 238 0.0 2.0 0.00 0.00 0.00 95 1013.9
20260901125353 66 238 0.0 2.0 0.00 0.00 0.00 95 1013.7
20260901124906 66 238 0.0 2.0 0.00 0.00 0.00 94 1013.9
20260901124356 66 239 1.0 2.0 0.00 0.00 0.00 95 1013.9
20260901123855 65 238 1.0 2.0 0.00 0.00 0.00 94 1013.9
20260901123352 65 246 1.0 2.0 0.00 0.00 0.00 94 1013.9
20260901122851 65 246 1.0 2.0 0.00 0.00 0.00 94 1013.7
20260901122348 65 246 1.0 2.0 0.00 0.00 0.00 94 1013.6
20260901121846 65 246 0.0 1.0 0.00 0.00 0.00 94 1013.5
20260901121343 65 246 0.0 1.0 0.00 0.00 0.00 94 1013.5
20260901120843 65 246 0.0 1.0 0.00 0.00 0.00 94 1013.5
20260901120343 65 246 0.0 1.0 0.00 0.00 0.00 94 1013.5
20260901120110 65 246 0.0 0.0 0.00 0.00 0.00 94 1013.4
20260901115339 65 246 0.0 0.0 0.00 0.00 0.00 94 1013.3
20260901114839 65 246 0.0 2.0 0.00 0.00 0.00 94 1013.2
20260901114340 65 246 0.0 2.0 0.00 0.00 0.00 94 1013.3
20260901113837 65 244 0.0 1.0 0.00 0.00 0.00 94 1013.2
20260901113338 65 244 0.0 0.0 0.00 0.00 0.00 93 1013.1
20260901112833 66 244 0.0 0.0 0.00 0.00 0.00 93 1013.0
20260901112328 66 244 0.0 0.0 0.00 0.00 0.00 93 1013.0
20260901111823 66 244 0.0 1.0 0.00 0.00 0.00 93 1013.0
20260901111321 66 244 0.0 2.0 0.00 0.00 0.00 93 1012.9
20260901110819 66 244 0.0 2.0 0.00 0.00 0.00 93 1012.7
20260901110318 66 244 0.0 0.0 0.00 0.00 0.00 93 1012.6
20260901110037 66 244 0.0 0.0 0.00 0.00 0.00 93 1012.5
20260901105316 66 244 0.0 0.0 0.00 0.00 0.00 93 1012.5
20260901104812 66 244 0.0 0.0 0.00 0.00 0.00 93 1012.5
20260901104310 66 244 0.0 0.0 0.00 0.00 0.00 93 1012.4
20260901103808 66 244 0.0 0.0 0.00 0.00 0.00 93 1012.4
20260901103319 66 244 0.0 0.0 0.00 0.00 0.00 93 1012.3
20260901102807 66 244 0.0 0.0 0.00 0.00 0.00 93 1012.3
20260901102307 66 244 0.0 0.0 0.00 0.00 0.00 92 1012.3
20260901102253 66 244 0.0 0.0 0.00 0.00 0.00 92 1012.5
20260901101301 67 244 0.0 0.0 0.00 0.00 0.00 93 1012.5
20260901100800 67 244 0.0 0.0 0.00 0.00 0.00 93 1012.5
20260901100257 67 251 0.0 0.0 0.00 0.00 0.00 93 1012.4
20260901100239 67 251 0.0 0.0 0.00 0.00 0.00 92 1012.4
20260901095256 67 251 0.0 0.0 0.00 0.00 0.00 92 1012.4
20260901094748 67 251 0.0 0.0 0.00 0.00 0.00 92 1012.5
20260901094242 67 251 0.0 0.0 0.00 0.00 0.00 92 1012.4
20260901093736 67 251 0.0 0.0 0.00 0.00 0.00 92 1012.3
20260901093235 67 251 0.0 0.0 0.00 0.00 0.00 92 1012.3
20260901092733 67 251 0.0 1.0 0.00 0.00 0.00 92 1012.3
20260901092235 67 251 0.0 1.0 0.00 0.00 0.00 92 1012.3
20260901091735 67 251 0.0 1.0 0.00 0.00 0.00 92 1012.3
20260901091234 67 251 0.0 0.0 0.00 0.00 0.00 91 1012.2
20260901090733 67 251 0.0 0.0 0.00 0.00 0.00 91 1012.1
20260901090231 67 251 0.0 0.0 0.00 0.00 0.00 91 1012.2
20260901085953 67 251 0.0 0.0 0.00 0.00 0.00 91 1012.2
20260901085232 67 251 0.0 0.0 0.00 0.00 0.00 90 1012.3
20260901084812 67 251 0.0 0.0 0.00 0.00 0.00 90 1012.4
20260901084318 67 251 0.0 0.0 0.00 0.00 0.00 90 1012.3
20260901083228 68 251 0.0 0.0 0.00 0.00 0.00 90 1012.3
20260901083204 68 251 0.0 0.0 0.00 0.00 0.00 90 1012.2
20260901082226 68 251 0.0 0.0 0.00 0.00 0.00 90 1012.2
20260901081724 68 251 0.0 0.0 0.00 0.00 0.00 90 1012.2
20260901081226 68 251 0.0 0.0 0.00 0.00 0.00 89 1012.3
20260901080721 68 251 0.0 0.0 0.00 0.00 0.00 89 1012.3
20260901080221 68 251 0.0 0.0 0.00 0.00 0.00 89 1012.3
20260901075721 68 251 0.0 0.0 0.00 0.00 0.00 89 1012.4
20260901075445 68 251 0.0 0.0 0.00 0.00 0.00 89 1012.4
20260901074721 68 251 0.0 0.0 0.00 0.00 0.00 89 1012.4
20260901074221 68 251 0.0 0.0 0.00 0.00 0.00 88 1012.4
20260901073946 69 251 0.0 0.0 0.00 0.00 0.00 88 1012.4
20260901073711 69 251 0.0 0.0 0.00 0.00 0.00 88 1012.4
20260901072718 69 251 0.0 0.0 0.00 0.00 0.00 88 1012.5
20260901072443 69 251 0.0 0.0 0.00 0.00 0.00 88 1012.6
20260901071710 69 251 0.0 0.0 0.00 0.00 0.00 88 1012.7
20260901071210 69 251 0.0 1.0 0.00 0.00 0.00 87 1012.6
20260901070704 69 251 0.0 1.0 0.00 0.00 0.00 87 1012.6
20260901070202 69 251 0.0 0.0 0.00 0.00 0.00 87 1012.6
20260901065702 69 251 0.0 0.0 0.00 0.00 0.00 87 1012.7
20260901065648 69 251 0.0 0.0 0.00 0.00 0.00 87 1012.8
20260901064704 69 251 0.0 0.0 0.00 0.00 0.00 86 1012.8
20260901064205 70 251 0.0 0.0 0.00 0.00 0.00 86 1012.8
20260901063704 70 251 0.0 0.0 0.00 0.00 0.00 86 1013.0
20260901063203 70 251 0.0 0.0 0.00 0.00 0.00 85 1013.0
20260901062703 70 251 0.0 0.0 0.00 0.00 0.00 85 1013.0
20260901062204 70 251 0.0 0.0 0.00 0.00 0.00 85 1012.9
20260901061701 70 251 0.0 0.0 0.00 0.00 0.00 84 1012.7
20260901061202 70 251 0.0 0.0 0.00 0.00 0.00 84 1012.7
20260901060702 70 251 0.0 0.0 0.00 0.00 0.00 84 1012.8
20260901060200 71 251 0.0 0.0 0.00 0.00 0.00 84 1012.8
20260901055701 71 251 0.0 0.0 0.00 0.00 0.00 83 1012.7
20260901055202 71 251 0.0 0.0 0.00 0.00 0.00 83 1012.6
20260901054701 71 251 0.0 0.0 0.00 0.00 0.00 83 1012.6
20260901054200 71 251 0.0 0.0 0.00 0.00 0.00 82 1012.6
20260901053701 71 251 0.0 0.0 0.00 0.00 0.00 82 1012.5
20260901053201 71 251 0.0 0.0 0.00 0.00 0.00 82 1012.5
20260901052702 71 251 0.0 0.0 0.00 0.00 0.00 82 1012.4
20260901052201 72 251 0.0 0.0 0.00 0.00 0.00 81 1012.4
20260901051702 72 251 0.0 0.0 0.00 0.00 0.00 81 1012.4
20260901051420 72 251 0.0 0.0 0.00 0.00 0.00 80 1012.3
20260901050924 72 251 0.0 0.0 0.00 0.00 0.00 80 1012.2
20260901050431 72 251 0.0 0.0 0.00 0.00 0.00 80 1012.2
20260901045915 72 251 0.0 0.0 0.00 0.00 0.00 80 1012.1
20260901045158 72 251 0.0 0.0 0.00 0.00 0.00 80 1012.1
20260901044655 72 251 0.0 0.0 0.00 0.00 0.00 80 1012.0
20260901044156 72 251 0.0 0.0 0.00 0.00 0.00 79 1012.0
20260901043921 73 251 0.0 0.0 0.00 0.00 0.00 79 1012.0
20260901043427 73 251 0.0 0.0 0.00 0.00 0.00 78 1011.9
20260901042655 73 251 0.0 0.0 0.00 0.00 0.00 78 1011.9
20260901042412 73 251 0.0 0.0 0.00 0.00 0.00 77 1011.8
20260901041651 73 251 0.0 0.0 0.00 0.00 0.00 77 1012.0
20260901041154 73 251 0.0 0.0 0.00 0.00 0.00 76 1012.0
20260901040650 73 251 0.0 0.0 0.00 0.00 0.00 76 1012.0
20260901040351 74 251 0.0 0.0 0.00 0.00 0.00 75 1011.9
20260901040240 74 251 0.0 0.0 0.00 0.00 0.00 76 1012.0
20260901035146 74 251 0.0 0.0 0.00 0.00 0.00 74 1012.0
20260901034643 74 251 0.0 0.0 0.00 0.00 0.00 74 1012.1
20260901034136 74 251 0.0 0.0 0.00 0.00 0.00 74 1012.1
20260901033637 74 251 0.0 0.0 0.00 0.00 0.00 73 1012.1
20260901033137 75 251 0.0 0.0 0.00 0.00 0.00 72 1012.1
20260901032634 75 251 0.0 0.0 0.00 0.00 0.00 72 1012.1
20260901032130 75 252 0.0 0.0 0.00 0.00 0.00 71 1012.0
20260901031628 75 252 0.0 0.0 0.00 0.00 0.00 71 1011.9
20260901031610 75 254 0.0 0.0 0.00 0.00 0.00 71 1012.0
20260901030629 76 254 0.0 0.0 0.00 0.00 0.00 70 1012.0
20260901030128 76 252 0.0 0.0 0.00 0.00 0.00 69 1012.0
20260901025625 76 251 0.0 0.0 0.00 0.00 0.00 68 1012.0
20260901025126 76 250 0.0 0.0 0.00 0.00 0.00 68 1011.9
20260901024622 76 251 0.0 0.0 0.00 0.00 0.00 67 1011.9
20260901024121 76 251 0.0 0.0 0.00 0.00 0.00 67 1011.8
20260901023620 77 251 0.0 0.0 0.00 0.00 0.00 66 1011.8
20260901023337 77 251 0.0 0.0 0.00 0.00 0.00 65 1011.7
20260901022834 77 251 0.0 0.0 0.00 0.00 0.00 65 1011.6
20260901022113 77 250 0.0 0.0 0.00 0.00 0.00 64 1011.6
20260901021611 78 250 0.0 0.0 0.00 0.00 0.00 64 1011.6
20260901021119 78 250 0.0 0.0 0.00 0.00 0.00 63 1011.7
20260901020603 78 250 0.0 2.0 0.00 0.00 0.00 62 1011.6
20260901020117 78 251 0.0 2.0 0.00 0.00 0.00 62 1011.5
20260901015826 79 251 0.0 2.0 0.00 0.00 0.00 61 1011.5
20260901015106 79 251 0.0 1.0 0.00 0.00 0.00 61 1011.5
20260901014604 79 251 0.0 0.0 0.00 0.00 0.00 60 1011.5
20260901014104 79 251 0.0 2.0 0.00 0.00 0.00 59 1011.4
20260901013605 79 251 0.0 2.0 0.00 0.00 0.00 58 1011.3
20260901013104 80 251 0.0 0.0 0.00 0.00 0.00 57 1011.3
20260901012600 80 251 0.0 1.0 0.00 0.00 0.00 57 1011.1